Time,TemperatureF,DewpointF,PressureIn,WindDirection,WindDirectionDegrees,WindSpeedMPH,WindSpeedGustMPH,Humidity,HourlyPrecipIn,Conditions,Clouds,dailyrainin,SolarRadiationWatts/m^2,SoftwareType,DateUTC
2013-05-11 00:01:00,64.0,39.0,-100.00,NNW,336,0.0,3.0,40,0.00,,,-99.99,0.000000,,2013-05-11 07:01:00,
2013-05-11 00:32:00,61.0,38.0,-100.00,WSW,254,0.0,3.0,42,0.00,,,-99.99,0.000000,,2013-05-11 07:32:00,
2013-05-11 00:42:00,61.0,38.0,-100.00,WSW,254,0.0,3.0,42,0.00,,,-99.99,0.000000,,2013-05-11 07:42:00,
2013-05-11 00:52:00,61.0,38.0,-100.00,WSW,254,0.0,3.0,42,0.00,,,-99.99,0.000000,,2013-05-11 07:52:00,
2013-05-11 01:01:00,61.0,38.0,-100.00,WSW,254,0.0,3.0,42,0.00,,,-99.99,0.000000,,2013-05-11 08:01:00,
2013-05-11 01:32:00,60.0,39.0,-100.00,North,349,2.0,3.0,46,0.00,,,-99.99,0.000000,,2013-05-11 08:32:00,
2013-05-11 01:42:00,60.0,39.0,-100.00,North,349,2.0,3.0,46,0.00,,,-99.99,0.000000,,2013-05-11 08:42:00,
2013-05-11 01:52:00,60.0,39.0,-100.00,North,349,2.0,3.0,46,0.00,,,-99.99,0.000000,,2013-05-11 08:52:00,
2013-05-11 02:01:00,60.0,39.0,-100.00,North,349,2.0,3.0,46,0.00,,,-99.99,0.000000,,2013-05-11 09:01:00,
2013-05-11 02:33:00,60.0,37.0,-100.00,North,359,1.0,3.0,42,0.00,,,-99.99,0.000000,,2013-05-11 09:33:00,
2013-05-11 02:42:00,60.0,37.0,-100.00,North,359,1.0,3.0,42,0.00,,,-99.99,0.000000,,2013-05-11 09:42:00,
2013-05-11 02:52:00,60.0,37.0,-100.00,North,359,1.0,3.0,42,0.00,,,-99.99,0.000000,,2013-05-11 09:52:00,
2013-05-11 03:03:00,60.0,37.0,-100.00,North,359,1.0,3.0,42,0.00,,,-99.99,0.000000,,2013-05-11 10:03:00,
2013-05-11 03:33:00,59.0,34.0,-100.00,West,266,0.0,3.0,39,0.00,,,-99.99,0.000000,,2013-05-11 10:33:00,
2013-05-11 03:42:00,59.0,34.0,-100.00,West,266,0.0,3.0,39,0.00,,,-99.99,0.000000,,2013-05-11 10:42:00,
2013-05-11 03:52:00,59.0,34.0,-100.00,West,266,0.0,3.0,39,0.00,,,-99.99,0.000000,,2013-05-11 10:52:00,
2013-05-11 04:02:00,59.0,34.0,-100.00,West,266,0.0,3.0,39,0.00,,,-99.99,0.000000,,2013-05-11 11:02:00,
2013-05-11 04:32:00,59.0,32.0,-100.00,WNW,286,0.0,4.0,36,0.00,,,-99.99,0.000000,,2013-05-11 11:32:00,
2013-05-11 04:42:00,59.0,32.0,-100.00,WNW,286,0.0,4.0,36,0.00,,,-99.99,0.000000,,2013-05-11 11:42:00,
2013-05-11 04:52:00,59.0,32.0,-100.00,WNW,286,0.0,4.0,36,0.00,,,-99.99,0.000000,,2013-05-11 11:52:00,
2013-05-11 05:01:00,59.0,32.0,-100.00,WNW,286,0.0,4.0,36,0.00,,,-99.99,0.000000,,2013-05-11 12:01:00,
2013-05-11 05:32:00,59.0,30.0,-100.00,NNW,346,0.0,4.0,33,0.00,,,-99.99,0.000000,,2013-05-11 12:32:00,
2013-05-11 06:32:00,60.0,30.0,-100.00,NNW,343,1.0,3.0,32,0.00,,,-99.99,5.000000,,2013-05-11 13:32:00,
2013-05-11 07:32:00,60.0,33.0,-100.00,South,176,0.0,3.0,36,0.00,,,-99.99,25.000000,,2013-05-11 14:32:00,
2013-05-11 07:42:00,60.0,33.0,-100.00,South,176,0.0,3.0,36,0.00,,,-99.99,25.000000,,2013-05-11 14:42:00,
2013-05-11 07:52:00,60.0,33.0,-100.00,South,176,0.0,3.0,36,0.00,,,-99.99,25.000000,,2013-05-11 14:52:00,
2013-05-11 08:01:00,60.0,33.0,-100.00,South,176,0.0,3.0,36,0.00,,,-99.99,25.000000,,2013-05-11 15:01:00,
2013-05-11 09:33:00,63.0,32.0,-100.00,SSW,193,0.0,4.0,31,-99.99,,,-99.99,161.000000,,2013-05-11 16:33:00,
2013-05-11 09:52:00,63.0,32.0,-100.00,SSW,193,0.0,4.0,31,-99.99,,,-99.99,161.000000,,2013-05-11 16:52:00,
2013-05-11 10:02:00,63.0,32.0,-100.00,SSW,193,0.0,4.0,31,-99.99,,,-99.99,161.000000,,2013-05-11 17:02:00,
2013-05-11 11:32:00,76.0,37.0,-100.00,ESE,123,4.0,7.0,24,-99.99,,,-99.99,684.000000,,2013-05-11 18:32:00,
2013-05-11 12:32:00,75.0,41.0,-100.00,South,179,5.0,11.0,30,0.00,,,-99.99,833.000000,,2013-05-11 19:32:00,
2013-05-11 12:42:00,75.0,41.0,-100.00,South,179,5.0,11.0,30,0.00,,,-99.99,833.000000,,2013-05-11 19:42:00,
2013-05-11 12:52:00,75.0,41.0,-100.00,South,179,5.0,11.0,30,0.00,,,-99.99,833.000000,,2013-05-11 19:52:00,
2013-05-11 13:01:00,75.0,41.0,-100.00,South,179,5.0,11.0,30,0.00,,,-99.99,833.000000,,2013-05-11 20:01:00,
2013-05-11 13:32:00,78.0,41.0,-100.00,SSE,149,8.0,12.0,27,0.00,,,-99.99,869.000000,,2013-05-11 20:32:00,
2013-05-11 13:42:00,78.0,41.0,-100.00,SSE,149,8.0,12.0,27,0.00,,,-99.99,869.000000,,2013-05-11 20:42:00,
2013-05-11 13:52:00,78.0,41.0,-100.00,SSE,149,8.0,12.0,27,0.00,,,-99.99,869.000000,,2013-05-11 20:52:00,
2013-05-11 14:01:00,78.0,41.0,-100.00,SSE,149,8.0,12.0,27,0.00,,,-99.99,869.000000,,2013-05-11 21:01:00,
2013-05-11 14:33:00,78.0,40.0,-100.00,South,174,5.0,14.0,26,0.00,,,-99.99,758.000000,,2013-05-11 21:33:00,
2013-05-11 14:43:00,78.0,40.0,-100.00,South,174,5.0,14.0,26,0.00,,,-99.99,758.000000,,2013-05-11 21:43:00,
2013-05-11 14:52:00,78.0,40.0,-100.00,South,174,5.0,14.0,26,0.00,,,-99.99,758.000000,,2013-05-11 21:52:00,
2013-05-11 15:02:00,78.0,40.0,-100.00,South,174,5.0,14.0,26,0.00,,,-99.99,758.000000,,2013-05-11 22:02:00,
2013-05-11 15:33:00,78.0,43.0,-100.00,SSE,157,6.0,15.0,29,0.00,,,0.14,675.000000,,2013-05-11 22:33:00,
2013-05-11 15:43:00,78.0,43.0,-100.00,SSE,157,6.0,15.0,29,0.00,,,0.14,675.000000,,2013-05-11 22:43:00,
2013-05-11 15:52:00,78.0,43.0,-100.00,SSE,157,6.0,15.0,29,0.00,,,0.14,675.000000,,2013-05-11 22:52:00,
2013-05-11 16:02:00,78.0,43.0,-100.00,SSE,157,6.0,15.0,29,0.00,,,0.14,675.000000,,2013-05-11 23:02:00,
2013-05-11 16:32:00,79.0,42.0,-100.00,SSE,164,5.0,12.0,27,0.00,,,0.14,529.000000,,2013-05-11 23:32:00,
2013-05-11 16:42:00,79.0,42.0,-100.00,SSE,164,5.0,12.0,27,0.00,,,0.14,529.000000,,2013-05-11 23:42:00,
2013-05-11 16:52:00,79.0,42.0,-100.00,SSE,164,5.0,12.0,27,0.00,,,0.14,529.000000,,2013-05-11 23:52:00,
2013-05-11 17:01:00,79.0,42.0,-100.00,SSE,164,5.0,12.0,27,0.00,,,0.14,529.000000,,2013-05-12 00:01:00,
2013-05-11 17:32:00,76.0,45.0,-100.00,South,180,3.0,11.0,33,0.00,,,-99.99,289.000000,,2013-05-12 00:32:00,
2013-05-11 17:42:00,76.0,45.0,-100.00,South,180,3.0,11.0,33,0.00,,,-99.99,289.000000,,2013-05-12 00:42:00,
2013-05-11 17:52:00,76.0,45.0,-100.00,South,180,3.0,11.0,33,0.00,,,-99.99,289.000000,,2013-05-12 00:52:00,
2013-05-11 18:01:00,76.0,45.0,-100.00,South,180,3.0,11.0,33,0.00,,,-99.99,289.000000,,2013-05-12 01:01:00,
2013-05-11 18:32:00,75.0,48.0,-100.00,South,177,3.0,7.0,38,0.00,,,-99.99,193.000000,,2013-05-12 01:32:00,
2013-05-11 18:42:00,75.0,48.0,-100.00,South,177,3.0,7.0,38,0.00,,,-99.99,193.000000,,2013-05-12 01:42:00,
2013-05-11 18:52:00,75.0,48.0,-100.00,South,177,3.0,7.0,38,0.00,,,-99.99,193.000000,,2013-05-12 01:52:00,
2013-05-11 19:01:00,75.0,48.0,-100.00,South,177,3.0,7.0,38,0.00,,,-99.99,193.000000,,2013-05-12 02:01:00,
2013-05-11 19:32:00,72.0,49.0,-100.00,SW,221,1.0,8.0,45,0.00,,,0.00,125.000000,,2013-05-12 02:32:00,
2013-05-11 19:42:00,72.0,49.0,-100.00,SW,221,1.0,8.0,45,0.00,,,0.00,125.000000,,2013-05-12 02:42:00,
2013-05-11 19:52:00,72.0,49.0,-100.00,SW,221,1.0,8.0,45,0.00,,,0.00,125.000000,,2013-05-12 02:52:00,
2013-05-11 20:01:00,72.0,49.0,-100.00,SW,221,1.0,8.0,45,0.00,,,0.00,125.000000,,2013-05-12 03:01:00,
2013-05-11 20:33:00,69.0,50.0,-100.00,SW,219,1.0,4.0,51,0.00,,,0.00,47.000000,,2013-05-12 03:33:00,
2013-05-11 20:43:00,69.0,50.0,-100.00,SW,219,1.0,4.0,51,0.00,,,0.00,47.000000,,2013-05-12 03:43:00,
2013-05-11 20:53:00,69.0,50.0,-100.00,SW,219,1.0,4.0,51,0.00,,,0.00,47.000000,,2013-05-12 03:53:00,
2013-05-11 21:02:00,-999.0,-99.9,-100.00,SW,219,1.0,4.0,51,0.00,,,0.00,47.000000,,2013-05-12 04:02:00,
2013-05-11 21:33:00,66.0,49.0,-100.00,ENE,58,0.0,3.0,54,0.00,,,0.00,3.000000,,2013-05-12 04:33:00,
2013-05-11 21:43:00,66.0,49.0,-100.00,ENE,58,0.0,3.0,54,0.00,,,0.00,3.000000,,2013-05-12 04:43:00,
2013-05-11 21:52:00,66.0,49.0,-100.00,ENE,58,0.0,3.0,54,0.00,,,0.00,3.000000,,2013-05-12 04:52:00,
2013-05-11 22:02:00,66.0,49.0,-100.00,ENE,58,0.0,3.0,54,0.00,,,0.00,3.000000,,2013-05-12 05:02:00,
2013-05-11 22:32:00,64.0,49.0,-100.00,WSW,252,3.0,4.0,59,0.00,,,-99.99,0.000000,,2013-05-12 05:32:00,
2013-05-11 22:42:00,64.0,49.0,-100.00,WSW,252,3.0,4.0,59,0.00,,,-99.99,0.000000,,2013-05-12 05:42:00,
2013-05-11 22:52:00,64.0,49.0,-100.00,WSW,252,3.0,4.0,59,0.00,,,-99.99,0.000000,,2013-05-12 05:52:00,
2013-05-11 23:01:00,64.0,49.0,-100.00,WSW,252,3.0,4.0,59,0.00,,,-99.99,0.000000,,2013-05-12 06:01:00,
2013-05-11 23:32:00,62.0,49.0,-100.00,West,260,1.0,7.0,63,0.00,,,0.00,0.000000,,2013-05-12 06:32:00,
2013-05-11 23:42:00,62.0,49.0,-100.00,West,260,1.0,7.0,63,0.00,,,0.00,0.000000,,2013-05-12 06:42:00,
2013-05-11 23:52:00,62.0,49.0,-100.00,West,260,1.0,7.0,63,0.00,,,0.00,0.000000,,2013-05-12 06:52:00,